Hutchinson, MN

5:14 PM CDT on April 21, 2018 (GMT -0500)
Hutchinson Municipal-Butler

Weather History for KHCD - October, 2012

Change the Weather History Date:

Saturday, October 6, 2012

  Actual Average Record
Temperature  
Mean Temperature 36 °F -  
Max Temperature 46 °F 63 °F 87 °F (2007)
Min Temperature 24 °F 39 °F 1 °F (2004)
Degree Days  
Heating Degree Days 29    
Moisture  
Dew Point 27 °F    
Average Humidity 69    
Maximum Humidity 87    
Minimum Humidity 45    
Precipitation  
Precipitation 0.00 in - - ()
Sea Level Pressure  
Sea Level Pressure 30.25 in    
Wind  
Wind Speed 11 mph (NW)    
Max Wind Speed 17 mph    
Max Gust Speed 25 mph    
Visibility 10 miles    
Events      
Averages and records for this station are not official NWS values.
T = Trace of Precipitation, MM = Missing Value Source: NWS Daily Summary

Daily Weather History Graph

Daily Weather History Graph

Search for Another Location

Airport or City:

Astronomy

Oct. 06, 2012 Rise Set
Actual Time 7:22 AM CDT 6:47 PM CDT
Civil Twilight 6:53 AM CDT 7:17 PM CDT
Nautical Twilight 6:19 AM CDT 7:50 PM CDT
Astronomical Twilight 5:44 AM CDT 8:24 PM CDT
Moon 10:52 PM CDT (10/6) 1:29 PM CDT (10/6)
Length of Visible Light 12h 24m
Length of Day
11h 25m
Waning Gibbous, 65% of the Moon is Illuminated
Oct 6
Waning Gibbous
Oct 8
Last Quarter
Oct 15
New
Oct 21
First Quarter
Oct 29
Full

Hourly Weather History & Observations

Time (CDT) Temp. Windchill Dew Point Humidity Pressure Visibility Wind Dir Wind Speed Gust Speed Precip Events Conditions
12:10 AM 35.6 °F 27.1 °F 30.2 °F 81% 30.18 in 10.0 mi WNW 12.7 mph 19.6 mph N/A   Overcast
12:30 AM 35.6 °F 27.5 °F 30.2 °F 81% 30.18 in 10.0 mi WNW 11.5 mph 17.3 mph N/A   Scattered Clouds
12:50 AM 35.6 °F 27.5 °F 30.2 °F 81% 30.18 in 10.0 mi WNW 11.5 mph 18.4 mph N/A   Scattered Clouds
1:10 AM 35.6 °F 26.6 °F 30.2 °F 81% 30.18 in 10.0 mi WNW 13.8 mph 20.7 mph N/A   Mostly Cloudy
1:50 AM 35.6 °F 26.6 °F 30.2 °F 81% 30.18 in 10.0 mi WNW 13.8 mph - N/A   Overcast
2:10 AM 35.6 °F 27.5 °F 32.0 °F 87% 30.18 in 10.0 mi WNW 11.5 mph - N/A   Overcast
2:30 AM 35.6 °F 27.5 °F 32.0 °F 87% 30.19 in 10.0 mi WNW 11.5 mph 18.4 mph N/A   Overcast
2:50 AM 35.6 °F 27.1 °F 32.0 °F 87% 30.19 in 10.0 mi WNW 12.7 mph 17.3 mph N/A   Overcast
3:04 AM 36.5 °F 28.7 °F 31.5 °F 82% 30.19 in 10.0 mi WNW 11.5 mph - N/A   Overcast
3:10 AM 36.5 °F 29.2 °F 31.5 °F 82% 30.19 in 10.0 mi WNW 10.4 mph 16.1 mph N/A   Overcast
3:29 AM 36.5 °F 29.2 °F 31.5 °F 82% 30.18 in 10.0 mi WNW 10.4 mph 16.1 mph N/A   Overcast
3:48 AM 36.5 °F 29.7 °F 31.1 °F 81% 30.18 in 10.0 mi WNW 9.2 mph 17.3 mph N/A   Overcast
4:29 AM 36.5 °F 28.7 °F 31.1 °F 81% 30.19 in 10.0 mi WNW 11.5 mph - N/A   Overcast
4:49 AM 36.7 °F 28.4 °F 31.5 °F 81% 30.20 in 10.0 mi NW 12.7 mph - N/A   Overcast
5:08 AM 36.9 °F 27.1 °F 31.1 °F 80% 30.20 in 10.0 mi NW 17.3 mph - N/A   Overcast
5:29 AM 36.9 °F 29.1 °F 30.9 °F 79% 30.21 in 10.0 mi NW 11.5 mph 20.7 mph N/A   Overcast
5:49 AM 36.7 °F 27.6 °F 30.7 °F 79% 30.21 in 10.0 mi NNW 15.0 mph 19.6 mph N/A   Overcast
6:09 AM 36.5 °F 27.8 °F 30.6 °F 79% 30.22 in 10.0 mi NNW 13.8 mph 23.0 mph N/A   Overcast
6:28 AM 36.5 °F 28.2 °F 30.7 °F 80% 30.23 in 10.0 mi NNW 12.7 mph 20.7 mph N/A   Overcast
6:49 AM 36.5 °F 28.2 °F 31.1 °F 81% 30.23 in 10.0 mi NW 12.7 mph 17.3 mph N/A   Overcast
7:08 AM 36.5 °F 29.2 °F 31.6 °F 83% 30.24 in 10.0 mi WNW 10.4 mph - N/A   Overcast
7:29 AM 35.2 °F 28.1 °F 30.9 °F 84% 30.24 in 10.0 mi NW 9.2 mph - N/A   Overcast
7:49 AM 35.2 °F 27.1 °F 31.1 °F 85% 30.25 in 10.0 mi WNW 11.5 mph - N/A   Overcast
8:09 AM 36.5 °F 28.7 °F 31.8 °F 83% 30.26 in 10.0 mi NW 11.5 mph - N/A   Overcast
8:29 AM 36.5 °F 28.2 °F 31.6 °F 83% 30.27 in 10.0 mi NNW 12.7 mph - N/A   Overcast
8:49 AM 36.9 °F 27.8 °F 31.5 °F 81% 30.28 in 10.0 mi NW 15.0 mph 19.6 mph N/A   Overcast
9:06 AM 36.7 °F 26.9 °F 30.7 °F 79% 30.28 in 10.0 mi NNW 17.3 mph 20.7 mph N/A   Mostly Cloudy
9:29 AM 39.2 °F 30.2 °F 31.5 °F 74% 30.29 in 10.0 mi NNW 17.3 mph 21.9 mph N/A   Clear
9:49 AM 39.2 °F 32.0 °F 31.1 °F 73% 30.29 in 10.0 mi NNW 11.5 mph 21.9 mph N/A   Clear
10:08 AM 39.2 °F 30.5 °F 30.6 °F 71% 30.30 in 10.0 mi NNW 16.1 mph - N/A   Scattered Clouds
10:29 AM 39.4 °F 32.7 °F 28.8 °F 66% 30.30 in 10.0 mi North 10.4 mph 19.6 mph N/A   Mostly Cloudy
10:49 AM 39.7 °F 31.5 °F 28.4 °F 64% 30.30 in 10.0 mi NW 15.0 mph 20.7 mph N/A   Overcast
11:09 AM 41.9 °F 35.0 °F 27.3 °F 56% 30.29 in 10.0 mi North 12.7 mph 23.0 mph N/A   Mostly Cloudy
11:28 AM 40.6 °F 33.8 °F 26.6 °F 57% 30.29 in 10.0 mi North 11.5 mph 18.4 mph N/A   Mostly Cloudy
11:49 AM 41.5 °F 35.4 °F 27.5 °F 57% 30.30 in 10.0 mi North 10.4 mph 19.6 mph N/A   Mostly Cloudy
12:09 PM 40.3 °F 31.9 °F 26.6 °F 58% 30.30 in 10.0 mi NNW 16.1 mph 21.9 mph N/A   Overcast
12:29 PM 40.3 °F 34.4 °F 26.1 °F 57% 30.30 in 10.0 mi North 9.2 mph 19.6 mph N/A   Overcast
12:49 PM 41.4 °F 35.2 °F 25.7 °F 54% 30.30 in 10.0 mi NW 10.4 mph 18.4 mph N/A   Overcast
1:09 PM 42.3 °F 35.9 °F 26.2 °F 53% 30.30 in 10.0 mi NNW 11.5 mph - N/A   Overcast
1:29 PM 43.0 °F 37.7 °F 25.2 °F 49% 30.29 in 10.0 mi North 9.2 mph 20.7 mph N/A   Mostly Cloudy
1:49 PM 41.7 °F 34.1 °F 25.5 °F 53% 30.29 in 10.0 mi WNW 15.0 mph 25.3 mph N/A   Mostly Cloudy
2:09 PM 41.5 °F 34.6 °F 25.7 °F 53% 30.29 in 10.0 mi NW 12.7 mph 19.6 mph N/A   Overcast
2:28 PM 41.5 °F 35.4 °F 24.6 °F 51% 30.28 in 10.0 mi NW 10.4 mph 20.7 mph N/A   Overcast
2:48 PM 42.6 °F 35.6 °F 24.6 °F 49% 30.27 in 10.0 mi NNW 13.8 mph 21.9 mph N/A   Overcast
3:08 PM 41.9 °F 35.4 °F 25.0 °F 51% 30.27 in 10.0 mi NW 11.5 mph 23.0 mph N/A   Overcast
3:29 PM 42.8 °F 37.0 °F 23.9 °F 47% 30.26 in 10.0 mi NNW 10.4 mph - N/A   Mostly Cloudy
3:49 PM 44.4 °F 38.6 °F 25.3 °F 47% 30.25 in 10.0 mi NW 11.5 mph - N/A   Scattered Clouds
4:09 PM 46.6 °F - 26.2 °F 45% 30.25 in 10.0 mi North 8.1 mph 18.4 mph N/A   Scattered Clouds
4:29 PM 44.8 °F 39.0 °F 25.2 °F 46% 30.24 in 10.0 mi NNW 11.5 mph - N/A   Scattered Clouds
4:49 PM 46.0 °F 41.0 °F 25.7 °F 45% 30.24 in 10.0 mi NW 10.4 mph 16.1 mph N/A   Scattered Clouds
5:09 PM 42.4 °F 38.8 °F 23.0 °F 46% 30.24 in 10.0 mi North 5.8 mph - N/A   Scattered Clouds
5:29 PM 43.5 °F 38.9 °F 25.0 °F 48% 30.24 in 10.0 mi NNW 8.1 mph - N/A   Mostly Cloudy
5:49 PM 42.8 °F 40.1 °F 24.3 °F 48% 30.24 in 10.0 mi North 4.6 mph - N/A   Overcast
6:09 PM 41.5 °F 37.1 °F 23.9 °F 50% 30.24 in 10.0 mi North 6.9 mph 17.3 mph N/A   Scattered Clouds
6:29 PM 39.6 °F - 24.4 °F 55% 30.24 in 10.0 mi Calm Calm - N/A   Clear
6:49 PM 36.5 °F - 23.2 °F 59% 30.25 in 10.0 mi Calm Calm - N/A   Clear
7:09 PM 36.5 °F - 24.6 °F 62% 30.25 in 10.0 mi Calm Calm - N/A   Clear
7:29 PM 34.0 °F - 23.7 °F 66% 30.25 in 10.0 mi Calm Calm - N/A   Clear
7:48 PM 31.8 °F 28.5 °F 22.8 °F 69% 30.25 in 10.0 mi West 3.5 mph - N/A   Clear
8:09 PM 29.5 °F 25.9 °F 21.6 °F 72% 30.25 in 10.0 mi West 3.5 mph - N/A   Clear
8:29 PM 29.3 °F 25.6 °F 20.8 °F 71% 30.26 in 10.0 mi West 3.5 mph - N/A   Clear
8:48 PM 30.6 °F - 21.6 °F 69% 30.26 in 10.0 mi Calm Calm - N/A   Clear
9:09 PM 29.3 °F 25.6 °F 23.4 °F 78% 30.25 in 10.0 mi West 3.5 mph - N/A   Clear
9:28 PM 29.3 °F 23.2 °F 22.3 °F 75% 30.25 in 10.0 mi West 5.8 mph - N/A   Clear
9:49 PM 29.3 °F 24.3 °F 21.6 °F 73% 30.25 in 7.0 mi West 4.6 mph - N/A   Clear
9:53 PM 29.3 °F 24.3 °F 21.6 °F 73% 30.25 in 10.0 mi West 4.6 mph - N/A   Clear
10:30 PM 28.4 °F 23.3 °F 23.0 °F 80% 30.25 in 7.0 mi West 4.6 mph - N/A   Clear
10:50 PM 28.4 °F 23.3 °F 21.2 °F 74% 30.25 in 7.0 mi West 4.6 mph - N/A   Clear
11:10 PM 26.6 °F 20.0 °F 21.2 °F 80% 30.25 in 5.0 mi West 5.8 mph - N/A   Clear
11:30 PM 26.6 °F 21.2 °F 21.2 °F 80% 30.25 in 4.0 mi West 4.6 mph - N/A   Clear
11:50 PM 24.8 °F 17.9 °F 21.2 °F 86% 30.24 in 5.0 mi West 5.8 mph - N/A   Clear